Location: Czekanka
(50.4925°N, 19.2643°E)
Time: 06:42:43
(UTC+00:00)

SL-16 R/B - Pass Details

Date: 23 September 2024
Orbit: 842 x 846 km, 71.0° (Epoch: 05 October)

Event Time Altitude Azimuth Distance (km) Brightness Sun altitude
Rises 19:51:15 0° 258° (WSW) 3,402 5.8 -29.2°
Reaches altitude 10° 19:54:19 10° 275° (W) 2,469 5.2 -29.5°
Maximum altitude 19:58:32 21° 323° (NW) 1,816 4.6 -30.0°
Drops below altitude 10° 20:02:47 10° 12° (NNE) 2,475 5.0 -30.5°
Sets 20:05:53 0° 28° (NNE) 3,412 5.6 -30.9°
